CAPE
384 1015 1000 967 695 606 611 560 416 103 0 194 108 32 14 92 143 221 201 106 17 4 3 2 2 1 0 0 0 3 35 14 2 0 0 54 91 103 26 0 0 0 0
727 1066 1004 909 720 778 693 503 170 3 3 272 58 0 0 0 226 248 290 217 1 3 2 2 4 7 5 2 0 1 0 0 0 7 10 15 20 12 2 8 22 90 27
852 1070 1005 893 825 655 479 295 28 0 14 243 1 0 0 0 8 49 71 9 0 4 1 1 2 6 3 12 11 8 0 0 0 0 0 0 0 5 7 5 6 6 15
915 1064 1029 903 769 610 439 186 7 0 185 95 2 0 0 1 7 6 7 4 3 4 2 0 0 0 0 0 0 0 27 18 0 0 0 0 0 0 0 0 4 3 1
876 975 1016 744 695 651 336 97 0 18 427 76 3 0 0 2 6 10 4 4 2 2 3 0 0 0 0 0 0 0 6 0 0 0 0 0 0 0 0 0 0 2 4
742 905 893 748 705 443 87 18 0 253 449 155 37 0 0 2 5 10 2 3 0 3 2 0 0 0 0 0 0 0 0 0 0 0 0 0 0 0 0 0 0 0 1
645 891 879 729 680 321 57 10 30 353 591 391 189 0 0 1 3 6 0 0 2 3 0 0 0 0 0 0 0 0 0 0 0 0 0 0 0 0 0 0 0 0 0
708 979 880 787 559 354 91 11 127 414 700 577 284 38 0 0 0 1 3 3 1 0 0 0 0 0 0 0 0 0 0 0 0 0 0 0 0 0 0 0 0 0 0
1023 965 914 702 538 90 0 0 155 375 590 797 423 66 0 0 0 0 0 0 0 0 0 0 0 0 0 0 0 0 0 0 0 0 0 0 0 0 0 0 0 0 0
929 909 826 555 221 3 0 7 129 246 278 586 425 39 0 0 0 0 0 0 0 0 0 0 0 0 0 0 0 0 0 0 0 0 0 0 0 0 0 0 0 0 0
818 839 614 357 128 2 0 60 80 50 68 240 384 25 0 0 0 0 0 0 0 0 0 0 0 0 0 0 0 0 0 0 0 0 0 0 0 0 0 0 0 0 0
489 636 534 329 117 25 0 16 66 114 30 65 132 5 0 0 0 0 0 0 0 0 0 0 0 0 0 0 0 0 0 0 0 0 0 0 0 0 0 0 0 0 0
267 491 522 291 167 71 0 0 2 62 67 31 48 1 0 0 0 13 4 0 0 0 0 0 0 0 0 0 0 0 0 0 0 0 0 0 0 0 0 2 0 0 0
136 377 493 407 262 175 9 0 0 18 41 31 0 0 0 0 9 17 11 0 0 0 0 0 0 0 0 0 0 0 0 0 0 0 0 0 0 0 0 0 55 3 0
0 152 507 429 347 248 116 41 0 0 0 0 0 0 0 0 2 9 1 0 0 0 0 0 0 0 0 0 0 0 0 0 0 0 0 0 0 0 0 0 0 45 77
102 352 346 405 385 360 269 188 168 37 0 0 0 0 0 0 0 0 0 0 0 0 0 0 0 0 0 0 0 0 0 0 0 0 0 0 0 0 0 0 0 2 51
375 304 157 137 470 510 408 296 307 354 208 19 0 0 0 0 0 0 0 0 0 0 0 0 0 0 0 0 0 0 0 0 0 0 0 0 0 0 0 0 3 14 27
506 513 485 751 595 536 465 518 310 307 288 162 9 5 6 15 3 0 0 0 0 0 0 0 0 0 0 0 0 0 1 4 7 6 15 2 0 0 0 5 7 30 37
572 615 725 749 255 95 464 661 423 362 372 329 178 93 90 67 35 11 0 0 0 8 4 0 0 0 0 1 0 3 4 6 0 1 2 0 0 2 0 1 1 9 3
569 729 630 589 404 455 570 557 670 560 540 311 263 235 198 173 118 87 58 22 23 26 75 85 64 59 37 18 11 9 11 7 4 0 0 0 0 8 0 11 3 0 0
616 587 726 788 776 739 758 801 639 594 550 357 401 315 286 263 207 199 199 227 209 206 145 114 107 64 76 44 29 4 3 0 0 0 0 0 0 0 4 11 2 0 0
487 506 531 834 833 819 702 672 658 562 468 316 399 398 478 424 395 376 340 394 377 341 267 239 279 206 174 115 20 14 3 0 0 0 0 0 0 0 1 0 1 0 0
324 498 592 726 838 875 786 632 556 486 468 466 372 335 460 573 562 493 460 500 457 430 325 253 262 218 122 67 17 27 6 0 0 0 0 0 0 0 0 0 0 0 0
45 295 519 706 748 810 583 584 552 545 469 441 371 345 285 301 319 355 392 399 396 329 304 172 128 84 23 2 0 0 1 25 14 1 0 0 0 0 0 0 0 0 0
0 0 128 248 553 631 568 540 433 324 314 286 297 263 69 12 1 38 8 0 3 0 0 0 0 0 0 0 0 0 0 0 0 8 0 0 0 0 0 0 0 0 0
0 0 0 0 151 389 476 448 436 299 230 137 120 93 28 0 0 0 0 0 0 0 0 0 0 0 0 0 0 0 0 0 0 0 0 0 0 0 0 0 0 0 0
CIN
-151 -9 -3 -1 -10 -14 -13 -21 -40 -159 0 -132 -195 -240 -263 -162 -103 -71 -75 -113 -59 0 0 0 0 0 0 0 0 0 -94 0 0 0 0 -138 -152 -139 -18 0 0 0 0
-88 -3 -1 -2 -8 0 -4 -22 -113 -61 -35 -77 -57 0 0 0 -69 -53 -44 -66 -1 0 0 0 0 0 0 0 0 -5 0 0 0 -3 -2 -1 -18 0 0 -1 0 -97 -1
-52 -3 0 -1 -1 -4 -23 -65 -253 0 -56 -75 0 0 0 0 -110 -113 -125 -4 0 0 0 0 0 0 0 0 -3 -9 0 0 0 0 0 0 0 0 0 0 -1 0 -1
-33 0 0 -1 -3 -3 -34 -123 -229 0 -82 -120 0 0 0 0 0 0 0 -2 0 0 0 0 0 0 0 0 0 -1 -19 -21 0 0 0 0 0 0 0 0 0 0 0
-22 -3 0 -4 -7 -6 -52 -180 -36 -128 -8 -106 -185 0 0 0 0 0 0 0 0 0 0 0 0 0 0 0 0 0 -28 0 0 0 0 0 0 0 0 0 0 0 0
-27 -2 -1 -3 -9 -28 -145 -256 0 -43 -9 -61 -153 0 0 0 0 0 0 0 0 0 0 0 0 0 0 0 0 0 0 0 0 0 0 0 0 0 0 0 0 0 0
-23 -2 -1 -7 -9 -42 -153 -223 -232 -35 -13 -24 -66 -18 0 0 0 0 0 0 0 0 0 0 0 0 0 0 0 0 0 0 0 0 0 0 0 0 0 0 0 0 0
-25 0 -4 -8 -23 -36 -101 -185 -96 -34 -18 -22 -44 -194 0 0 0 0 0 0 0 0 0 0 0 0 0 0 0 0 0 0 0 0 0 0 0 0 0 0 0 0 0
-7 -2 -2 -11 -22 -115 0 0 -69 -37 -25 -16 -39 -148 0 0 0 0 0 0 0 0 0 0 0 0 0 0 0 0 0 0 0 0 0 0 0 0 0 0 0 0 0
-26 -10 -3 -23 -71 -32 0 -52 -94 -71 -58 -37 -42 -186 0 0 0 0 0 0 0 0 0 0 0 0 0 0 0 0 0 0 0 0 0 0 0 0 0 0 0 0 0
-13 -22 -17 -54 -116 -38 0 -139 -132 -153 -137 -86 -58 -227 0 0 0 0 0 0 0 0 0 0 0 0 0 0 0 0 0 0 0 0 0 0 0 0 0 0 0 0 0
-11 -27 -34 -62 -139 -198 0 -118 -160 -143 -170 -179 -141 -243 0 0 0 0 0 0 0 0 0 0 0 0 0 0 0 0 0 0 0 0 0 0 0 0 0 0 0 0 0
-14 -13 -45 -61 -122 -158 0 0 -20 -190 -191 -198 -200 -17 0 0 0 -277 -179 0 0 0 0 0 0 0 0 0 0 0 0 0 0 0 0 0 0 0 0 -4 0 0 0
-64 -5 -29 -59 -77 -91 -202 0 0 -231 -234 -230 -11 0 0 0 -288 -271 -298 0 0 0 0 0 0 0 0 0 0 0 0 0 0 0 0 0 0 0 0 0 -6 -3 0
0 -39 -15 -33 -68 -78 -140 -210 0 0 0 0 0 0 0 0 -139 -325 -162 0 0 0 0 0 0 0 0 0 0 0 0 0 0 0 0 0 0 0 0 0 0 -4 -8
-146 -61 -86 -42 -40 -108 -138 -151 -156 -271 0 0 0 0 0 0 0 0 0 0 0 0 0 0 0 0 0 0 0 0 0 0 0 0 0 0 0 0 0 0 0 -10 -14
-63 -77 -123 -126 -32 -51 -64 -94 -99 -98 -148 -245 0 0 0 0 0 0 0 0 0 0 0 0 0 0 0 0 0 0 0 0 0 0 0 0 0 0 0 0 -32 -24 -18
-43 -42 -45 -18 -27 -38 -24 -29 -81 -70 -96 -160 -308 -318 -294 -250 -109 0 0 0 0 0 0 0 0 0 0 0 0 0 -3 -22 -20 -24 -35 -13 -46 -3 0 -57 -48 -29 -21
-51 -46 -37 -59 -102 -126 -56 -37 -32 -57 -60 -88 -124 -162 -146 -152 -186 -211 0 0 0 -167 -68 0 0 0 -3 -5 0 -10 -10 -11 0 -7 -14 0 -16 -19 0 -17 -31 -34 -22
-54 -38 -39 -65 -107 -68 -38 -36 -31 -31 -42 -69 -91 -79 -74 -84 -88 -124 -136 -150 -155 -130 -87 -68 -56 -51 -44 -13 -11 -8 -12 -19 -20 0 0 0 -1 -34 0 -26 -34 0 -4
-62 -50 -39 -35 -38 -44 -38 -18 -25 -30 -32 -34 -26 -29 -39 -50 -47 -45 -62 -58 -47 -39 -30 -37 -37 -32 -39 -30 -75 -7 -7 -4 0 0 0 0 0 0 -61 -70 -70 0 0
-65 -76 -46 -51 -41 -47 -62 -62 -37 -38 -39 -34 -31 -22 -28 -28 -30 -37 -46 -31 -24 -13 -11 -8 -9 -9 -11 -12 -20 -6 -4 0 0 0 0 0 0 0 -53 0 -36 0 0
-77 -69 -72 -54 -63 -64 -58 -55 -54 -47 -46 -29 -24 -26 -27 -25 -33 -32 -32 -29 -26 -25 -13 -18 -19 -11 -10 -19 -20 -5 -5 -1 0 0 -4 0 0 0 0 0 0 0 0
-151 -91 -56 -61 -43 -50 -67 -52 -43 -40 -38 -42 -38 -63 -85 -96 -81 -78 -63 -60 -52 -43 -30 -50 -54 -47 -56 -11 0 0 -3 -6 0 -1 0 0 0 0 0 0 0 0 0
0 0 -105 -90 -51 -68 -59 -40 -48 -30 -40 -64 -80 -85 -162 -209 -159 -166 -212 -105 -232 0 0 0 0 0 0 0 0 0 0 0 0 -2 0 0 0 0 0 0 0 0 0
0 0 0 0 -160 -120 -75 -73 -53 -71 -63 -56 -91 -122 -138 0 0 0 0 0 0 0 0 0 0 0 0 0 0 0 0 0 0 0 0 0 0 0 0 0 0 0 0
Wind_Speed
7 10 12 13 14 13 14 14 14 15 16 18 18 17 16 18 20 21 21 21 20 20 20 21 22 22 23 23 23 23 22 23 25 26 26 27 28 29 29 29 29 28 28
11 11 12 12 13 13 14 14 14 14 16 17 17 17 16 16 18 20 20 19 19 19 20 20 21 21 22 22 22 22 22 23 25 27 27 26 27 28 28 28 28 28 29
10 9 11 12 12 13 13 13 13 14 15 16 17 17 16 16 16 17 17 17 18 19 19 20 19 20 21 22 21 19 21 25 26 26 25 26 27 27 28 28 27 28 29
9 8 8 10 12 12 12 13 13 14 15 16 17 17 17 17 17 16 17 17 18 19 19 19 19 20 20 21 19 20 24 25 26 25 25 26 27 28 28 27 27 27 27
8 7 8 10 11 11 12 13 14 15 16 16 16 17 18 19 19 18 19 19 19 19 18 19 19 19 20 20 21 21 24 25 26 26 26 27 27 28 28 28 27 26 26
8 6 9 9 9 9 11 14 14 15 16 16 16 17 18 19 19 19 19 19 18 18 17 18 18 18 18 18 19 20 22 24 24 25 26 26 26 27 27 27 27 26 26
8 7 7 9 8 8 9 11 14 15 15 15 15 16 17 17 18 18 18 18 18 17 17 17 17 17 17 18 18 20 21 22 23 24 25 25 25 26 26 26 26 26 25
9 7 6 7 7 7 7 9 11 14 15 16 15 14 15 16 16 17 17 18 18 17 17 17 17 17 17 17 17 19 20 21 21 21 22 23 23 24 25 25 25 25 25
8 8 6 4 4 5 5 8 10 11 12 14 15 14 14 15 15 15 16 15 15 15 15 15 16 16 17 17 17 18 19 20 19 19 19 20 21 22 22 23 23 24 24
9 8 7 5 4 2 3 7 7 9 11 11 13 13 12 13 12 12 13 13 13 13 13 14 14 15 15 15 16 16 17 18 18 15 16 18 19 20 20 21 22 22 23
9 10 11 9 6 3 1 3 4 5 9 9 12 11 10 10 9 10 11 11 12 12 12 12 13 13 14 15 15 15 15 16 17 14 14 15 16 18 18 19 19 20 21
15 16 14 12 9 6 4 2 2 4 8 9 10 8 7 8 8 8 9 10 11 11 11 11 12 13 13 14 14 14 14 15 16 14 12 12 14 16 16 16 17 18 19
22 18 21 16 11 9 5 1 2 2 4 5 6 6 6 6 7 8 9 10 10 10 11 11 11 12 12 13 14 12 13 13 14 13 11 11 12 14 14 14 15 15 16
17 31 28 22 13 11 7 5 1 0 1 2 3 3 4 6 6 7 8 9 9 10 10 10 12 12 12 11 12 13 13 13 12 13 13 9 10 12 13 13 13 13 14
10 24 29 25 18 15 11 9 5 4 2 1 2 3 5 8 5 6 7 8 9 10 10 11 12 13 13 11 11 10 11 12 13 13 12 10 9 10 12 13 13 12 11
13 11 14 24 27 17 13 9 9 7 4 4 3 5 5 6 7 8 9 10 11 10 10 11 12 12 14 16 16 14 13 13 13 12 12 12 8 9 11 13 13 13 12
14 17 11 8 27 16 17 11 12 9 5 4 4 6 8 8 10 13 14 13 11 11 12 12 14 15 17 18 19 19 18 16 15 15 14 13 13 10 10 12 12 13 13
9 15 10 8 10 20 32 29 14 10 8 6 5 4 5 10 12 14 14 14 13 14 15 16 17 19 20 20 21 20 20 20 21 22 22 17 15 14 13 11 12 13 13
9 10 12 14 15 21 11 19 22 14 13 12 7 6 7 9 11 12 13 15 15 15 16 17 18 19 21 22 22 22 23 23 24 25 25 24 20 18 17 15 12 13 15
9 9 10 13 12 14 9 7 5 6 10 13 10 8 8 9 8 10 12 14 15 16 17 18 19 20 22 24 26 27 28 27 27 27 24 23 22 19 16 16 15 14 17
10 11 10 11 11 10 11 9 12 11 11 13 12 11 11 8 8 7 8 12 15 18 20 21 22 24 25 25 28 30 30 27 25 25 24 24 24 19 16 14 14 15 18
10 10 11 11 11 11 11 15 14 16 14 13 14 13 13 11 9 10 11 11 15 19 20 22 24 27 29 27 30 34 36 33 27 25 24 25 22 17 14 13 13 14 16
13 11 10 13 12 13 13 13 18 17 17 15 14 15 14 13 13 13 12 13 16 20 23 24 26 28 32 30 29 31 34 34 32 25 23 25 24 21 17 14 15 16 16
14 12 11 14 15 16 15 15 18 19 20 19 18 17 16 15 15 15 15 16 18 20 24 26 27 28 28 33 32 29 30 33 35 34 26 24 22 22 20 18 16 17 17
19 18 17 16 18 20 18 19 19 25 23 22 19 15 15 15 15 17 17 18 21 23 25 27 28 28 29 30 30 31 30 30 29 30 34 28 25 23 22 19 17 16 16
21 20 19 22 21 20 20 21 21 21 20 22 22 20 17 15 18 19 20 21 22 24 25 26 27 29 30 29 29 28 28 29 29 28 30 29 28 26 23 18 17 16 16
Wind_Direction
132 116 107 99 93 83 77 72 63 57 67 70 68 64 61 62 72 76 74 67 61 55 48 50 52 52 54 53 49 44 37 31 46 46 46 42 39 42 48 48 50 49 47
127 120 112 103 95 88 82 74 66 65 73 72 66 66 67 66 67 73 69 64 58 49 51 53 52 52 53 50 47 42 40 39 47 50 45 38 39 42 45 47 49 43 41
134 125 114 105 95 90 80 74 69 73 74 73 66 65 68 69 70 69 64 58 54 55 56 55 52 52 53 49 41 28 32 58 64 54 38 36 35 39 41 43 41 39 37
139 132 119 107 97 91 81 77 76 81 77 74 68 67 69 73 73 69 67 61 63 60 58 55 53 54 51 44 31 29 48 55 54 46 41 38 44 41 43 44 42 42 42
153 140 124 111 101 90 83 83 86 87 85 77 71 69 71 74 76 71 73 71 68 63 59 59 56 54 50 42 37 36 57 58 55 50 48 47 48 46 44 43 41 41 43
159 149 124 113 102 89 85 89 92 90 89 82 74 71 72 76 78 75 75 72 65 61 57 58 57 52 45 38 35 33 46 62 51 52 50 48 48 45 42 40 38 38 41
161 151 132 115 102 91 86 89 95 93 92 85 77 72 72 74 77 78 76 74 69 64 60 58 54 49 43 37 33 33 37 61 55 54 52 48 46 44 41 40 37 36 37
168 169 157 125 106 96 85 88 93 93 91 92 80 72 71 73 74 75 77 75 72 67 62 59 55 51 44 34 28 29 31 53 60 55 51 46 43 43 42 40 36 34 36
180 197 193 161 124 98 86 90 92 90 83 92 85 77 72 73 73 73 73 71 67 62 59 55 52 50 45 38 32 36 34 34 57 58 53 51 45 44 46 43 38 36 34
189 198 202 201 195 159 92 94 90 90 87 79 88 76 69 68 65 63 63 62 62 58 54 49 48 44 37 27 25 27 28 34 46 67 61 52 49 44 44 45 40 35 33
206 212 216 218 219 218 160 104 84 82 92 78 92 79 67 52 51 52 50 52 52 50 48 46 43 37 31 23 25 29 36 38 36 57 61 56 49 43 44 42 42 37 33
225 222 224 222 224 232 251 122 72 73 89 88 90 77 52 39 40 35 33 38 42 42 38 34 34 30 25 25 29 32 37 35 32 45 56 56 46 41 40 40 38 37 33
246 235 228 227 228 239 250 191 97 65 80 83 86 72 43 15 21 18 15 18 24 32 27 28 24 21 24 20 20 33 28 31 28 31 46 48 39 33 33 35 33 32 30
245 236 231 229 232 243 250 262 238 218 55 64 65 15 360 357 357 5 4 10 18 20 23 21 13 11 19 24 26 21 21 21 27 22 25 37 32 27 23 22 22 23 23
246 211 235 232 236 243 250 260 267 275 287 26 346 340 326 326 352 355 357 357 5 6 5 3 1 360 5 14 17 19 16 15 13 13 14 18 19 17 15 12 11 12 13
232 192 220 244 240 245 248 252 264 274 282 292 312 312 317 320 324 329 329 332 334 347 1 0 0 0 354 351 351 357 359 359 1 3 3 3 3 1 1 3 3 4 4
226 244 238 202 244 250 255 255 266 273 269 242 280 301 302 305 308 308 311 315 324 334 343 347 344 343 338 339 337 339 344 350 351 350 348 346 346 346 346 348 352 356 0
224 242 234 222 239 254 253 255 269 269 284 277 267 277 290 302 302 302 304 307 315 322 327 329 329 327 328 330 333 336 336 336 337 337 337 339 338 339 338 333 340 348 352
229 245 244 249 262 265 248 259 263 276 281 292 274 275 284 297 300 300 302 303 308 315 319 321 323 326 326 327 328 330 330 331 330 329 329 332 334 333 334 336 335 344 348
221 217 225 253 261 265 251 224 246 268 285 295 290 279 281 291 291 301 302 304 307 311 315 319 320 321 321 321 321 322 322 324 325 326 329 329 327 328 332 337 341 345 346
245 231 233 236 244 248 261 249 271 265 277 287 293 284 288 274 281 292 298 304 306 306 309 311 314 315 317 320 319 317 320 324 325 326 327 328 327 329 332 334 342 346 347
255 252 254 249 252 260 263 274 278 273 280 282 283 289 287 285 282 286 292 300 305 306 308 312 311 310 312 317 314 314 315 320 325 328 330 333 334 335 334 335 342 345 346
264 261 256 264 256 256 258 272 277 280 286 282 282 280 284 288 289 289 292 296 303 307 308 310 312 312 309 313 315 314 315 315 324 331 330 332 332 332 331 332 336 338 340
262 269 268 270 271 269 265 265 270 272 273 276 276 280 283 285 286 292 297 300 303 307 308 310 312 312 312 310 313 314 311 310 313 316 325 331 334 329 326 326 330 332 335
271 273 276 279 277 278 276 272 272 278 281 280 280 278 282 292 296 297 299 304 305 306 309 309 310 311 311 311 312 313 314 313 312 311 313 319 324 325 326 323 326 330 335
272 274 279 279 278 277 276 276 276 272 278 283 281 278 283 290 295 297 301 302 305 309 308 308 311 311 311 311 311 312 311 312 315 315 314 315 316 320 324 324 324 326 331